Location: East Irvine
(33.6759°N, 117.7598°W)
Time: 22:41:09
(UTC+00:00)

NOSS 3-4 (C) - Pass Details

Date: 15 November 2025
Orbit: 773 x 1438 km, 63.4° (Epoch: 02 December)

Event Time Altitude Azimuth Distance (km) Brightness Sun altitude
Rises 01:25:33 0° 326° (NW) 3,883 6.9 -8.1°
Reaches altitude 10° 01:28:03 10° 324° (NW) 3,014 6.3 -8.6°
Maximum altitude 01:35:19 68° 243° (WSW) 1,348 4.5 -10.1°
Drops below altitude 10° 01:43:40 10° 163° (SSE) 3,438 6.3 -11.8°
Sets 01:46:42 0° 160° (SSE) 4,459 6.9 -12.4°
